Location: Bannatyne
(13.0833°N, 59.5333°W)
Time: 18:44:05
(UTC+00:00)

Vanguard 2 Rocket - Pass Details

Date: 28 January 2020
Orbit: 554 x 3326 km, 32.9° (Epoch: 02 April)

Event Time Altitude Azimuth Distance (km) Brightness Sun altitude
Rises 13:14:04 0° 309° (NW) 3,759 9.6 36.3°
Reaches altitude 10° 13:16:17 10° 313° (NW) 3,056 9.2 36.7°
Maximum altitude 13:24:01 60° 33° (NNE) 1,878 9.0 38.3°
Drops below altitude 10° 13:37:58 10° 111° (ESE) 5,299 11.9 41.0°
Sets 13:43:05 0° 114° (ESE) 6,685 12.1 41.9°
